Location: Buckeye Ditch
(40.9104°N, 122.9517°W)
Time: 11:30:54
(UTC+00:00)

DMSP B5D2-2 - Pass Details

Date: 13 April 2024
Orbit: 788 x 802 km, 98.3° (Epoch: 23 May)

Event Time Altitude Azimuth Distance (km) Brightness Sun altitude
Rises 12:11:48 0° 168° (SSE) 3,272 7.1 -15.5°
Reaches altitude 10° 12:14:07 10° 169° (S) 2,346 6.3 -15.1°
Maximum altitude 12:19:18 80° 257° (WSW) 805 4.0 -14.3°
Drops below altitude 10° 12:24:31 10° 345° (NNW) 2,359 6.7 -13.4°
Sets 12:26:51 0° 346° (NNW) 3,292 7.4 -13.0°
